Regional Weather Roundup
Issued by NWS

Home | Current Version | Previous Version | Text Only | Print | Product List | Glossary Off
Versions: 1 2 3 4 5 6 7 8 9 10 11 12 13 14 15 16 17 18 19 20 21 22 23 24 25 26 27 28 29 30 31 32 33 34 35 36 37 38 39 40 41 42 43 44 45 46 47 48 49 50

000
ASUS45 KSLC 300910
RWRUT

UTAH REGIONAL WEATHER ROUNDUP
NATIONAL WEATHER SERVICE SALT LAKE CITY UT
300 AM MDT TUE SEP 30 2014

UTZ001>011-023>025-301000-

NORTHERN UTAH

CITY           SKY/WX    TMP DP  RH WIND       PRES   REMARKS
HILL AFB       LGT RAIN  52  50  93 E7        30.00F
LOGAN          NOT AVBL
OGDEN          LGT RAIN  52  49  89 SE6       29.99S
PROVO AIRPORT  CLOUDY    48  43  81 SE3       30.03S
SALT LAKE CITY CLOUDY    52  48  86 S3        30.00R
VERNAL         PTCLDY    45  43  93 W6        30.00F
WENDOVER       CLOUDY    55  41  58 S6        29.99F
HEBER CITY     CLOUDY    45  41  87 CALM      30.03F
WEST JORDAN    CLOUDY    52  46  82 SW6       30.01S

$$

UTZ012>022-026-027-301000-

SOUTHERN UTAH

CITY           SKY/WX    TMP DP  RH WIND       PRES   REMARKS
BRYCE CANYON   CLOUDY    42  36  79 CALM      30.14S
CEDAR CITY     CLOUDY    51  42  71 S3        30.07R
MILFORD        CLEAR     47  40  76 W6        30.04S
MOAB/CYNLANDS  CLOUDY    51  45  79 S5        30.01S
PRICE          CLOUDY    51  44  77 CALM      30.05S
ST GEORGE      MOSUNNY   61  43  51 CALM      29.99S
KANAB          MOCLDY    48  43  81 CALM      30.10S

$$

REGIONAL REPORTS     COLORADO/ARIZONA

CITY           SKY/WX    TMP DP  RH WIND       PRES   REMARKS
CRAIG, CO      CLOUDY    46  38  73 SW12      30.02S
GRAND JUNCTION CLEAR     46  42  86 E12       30.04S
RIFLE          MOCLDY    44  41  89 S3        30.06S
MONTROSE       PTCLDY    41  40  96 SE5       30.10F
CORTEZ         MOCLDY    45  41  86 NE3       30.09R
PAGE, AZ       NOT AVBL
GRAND CANYON   CLEAR     36  34  92 E3        30.14R
KINGMAN        NOT AVBL
FLAGSTAFF      CLEAR     35  31  85 CALM      30.15R

$$

REGIONAL REPORTS    NEVADA/IDAHO/WYOMING

CITY           SKY/WX    TMP DP  RH WIND       PRES   REMARKS
LAS VEGAS, NV  CLEAR     69  39  33 S9        29.89S
ELY            PTCLDY    42  38  85 CALM      30.12R
ELKO           PTCLDY    43  40  89 CALM      30.05S
POCATELLO, ID  CLOUDY    50  49  96 SW12      29.98S
BURLEY         CLOUDY    51  47  86 SW7       29.95S
EVANSTON, WY   CLOUDY    41  38  89 SW13      30.04F
ROCK SPRINGS   CLEAR     40  37  89 W15       30.00S WCI  32

$$



USA.gov is the U.S. government's official web portal to all federal, state and local government web resources and services.